START_TIME,STEP,MOV.,M34,t_acc.,L5,t_acc.,L18,t_acc.,L14,t_acc.
1979-03-10 06:00:22.220 ,3,1,0.,12.0,0.,12.0,0.,12.0,0.,12.0
1979-03-10 06:00:34.220 ,3,1,0.,12.0,0.,12.0,0.,12.0,0.,12.0
1979-03-10 06:00:46.220 ,2,1,0.,12.0,0.,12.0,0.,12.0,0.,12.0
1979-03-10 06:00:58.220 ,2,1,0.,12.0,0.,12.0,0.,12.0,0.,12.0
1979-03-10 06:01:10.220 ,1,1,1.,12.0,0.,12.0,0.,12.0,0.,12.0
1979-03-10 06:01:22.220 ,1,1,0.,12.0,0.,12.0,0.,12.0,0.,12.0
1979-03-10 06:01:34.220 ,0,1,0.,12.0,0.,12.0,0.,12.0,0.,12.0
1979-03-10 06:01:46.220 ,0,1,0.,12.0,0.,12.0,0.,12.0,0.,12.0
1979-03-10 06:01:58.220 ,0,1,0.,12.0,0.,12.0,0.,12.0,0.,12.0
1979-03-10 06:02:10.220 ,0,1,0.,12.0,0.,12.0,0.,12.0,0.,12.0
1979-03-10 06:02:22.220 ,1,1,0.,12.0,0.,12.0,0.,12.0,0.,12.0
1979-03-10 06:02:34.220 ,1,1,0.,12.0,0.,12.0,0.,12.0,0.,12.0
1979-03-10 06:02:46.220 ,2,1,0.,12.0,0.,12.0,0.,12.0,0.,12.0
1979-03-10 06:02:58.220 ,2,1,0.,12.0,0.,12.0,0.,12.0,1.,12.0
1979-03-10 06:03:10.220 ,3,1,0.,12.0,0.,12.0,0.,12.0,0.,12.0
1979-03-10 06:03:22.220 ,3,1,0.,12.0,0.,12.0,0.,12.0,0.,12.0
1979-03-10 06:03:34.220 ,4,1,0.,12.0,0.,12.0,0.,12.0,0.,12.0
1979-03-10 06:03:46.220 ,4,1,0.,12.0,0.,12.0,0.,12.0,0.,12.0
1979-03-10 06:03:58.220 ,5,1,0.,12.0,0.,12.0,0.,12.0,0.,12.0
1979-03-10 06:04:10.220 ,5,1,0.,12.0,0.,12.0,0.,12.0,0.,12.0
1979-03-10 06:04:22.220 ,6,1,0.,12.0,0.,12.0,0.,12.0,0.,12.0
1979-03-10 06:04:34.220 ,6,1,0.,12.0,0.,12.0,0.,12.0,0.,12.0
1979-03-10 06:04:46.220 ,7,1,0.,12.0,0.,12.0,0.,12.0,0.,12.0
1979-03-10 06:04:58.220 ,7,1,0.,12.0,0.,12.0,0.,12.0,0.,12.0
1979-03-10 06:05:10.220 ,7,1,0.,12.0,0.,12.0,0.,12.0,0.,12.0
1979-03-10 06:05:22.220 ,7,1,0.,12.0,0.,12.0,0.,12.0,0.,12.0
1979-03-10 06:05:34.220 ,6,1,0.,12.0,0.,12.0,0.,12.0,0.,12.0
1979-03-10 06:05:46.220 ,6,1,0.,12.0,0.,12.0,0.,12.0,0.,12.0
1979-03-10 06:05:58.220 ,5,1,0.,12.0,0.,12.0,0.,12.0,0.,12.0
1979-03-10 06:06:10.220 ,5,1,0.,12.0,0.,12.0,0.,12.0,0.,12.0
1979-03-10 06:06:22.220 ,4,1,0.,12.0,0.,12.0,0.,12.0,0.,12.0
1979-03-10 06:06:34.220 ,4,1,0.,12.0,0.,12.0,0.,12.0,0.,12.0
1979-03-10 06:06:46.220 ,3,1,0.,12.0,0.,12.0,0.,12.0,0.,12.0
1979-03-10 06:06:58.220 ,3,1,0.,12.0,0.,12.0,0.,12.0,0.,12.0
1979-03-10 06:07:10.220 ,2,1,0.,12.0,0.,12.0,0.,12.0,0.,12.0
1979-03-10 06:07:22.220 ,2,1,0.,12.0,0.,12.0,0.,12.0,0.,12.0
1979-03-10 06:07:34.220 ,1,1,0.,12.0,0.,12.0,0.,12.0,0.,12.0
1979-03-10 06:07:46.220 ,1,1,0.,12.0,0.,12.0,0.,12.0,0.,12.0
1979-03-10 06:07:58.220 ,0,1,0.,12.0,0.,12.0,0.,12.0,0.,12.0
1979-03-10 06:08:10.220 ,0,1,0.,12.0,0.,12.0,0.,12.0,0.,12.0
1979-03-10 06:08:22.220 ,0,1,0.,12.0,0.,12.0,0.,12.0,0.,12.0
1979-03-10 06:08:34.220 ,0,1,0.,12.0,0.,12.0,0.,12.0,0.,12.0
1979-03-10 06:08:46.220 ,1,1,0.,12.0,0.,12.0,0.,12.0,0.,12.0
1979-03-10 06:08:58.220 ,1,1,0.,12.0,0.,12.0,0.,12.0,0.,12.0
1979-03-10 06:09:10.220 ,2,1,0.,12.0,0.,12.0,0.,12.0,0.,12.0
1979-03-10 06:09:22.220 ,2,1,0.,12.0,0.,12.0,0.,12.0,0.,12.0
1979-03-10 06:09:34.220 ,3,1,0.,12.0,0.,12.0,0.,12.0,0.,12.0
1979-03-10 06:09:46.220 ,3,1,0.,12.0,0.,12.0,0.,12.0,0.,12.0
1979-03-10 06:09:58.220 ,4,1,0.,12.0,0.,12.0,0.,12.0,0.,12.0
1979-03-10 06:10:10.220 ,4,1,0.,12.0,0.,12.0,0.,12.0,0.,12.0
1979-03-10 06:10:22.220 ,5,1,0.,12.0,0.,12.0,0.,12.0,0.,12.0
1979-03-10 06:10:34.220 ,5,1,0.,12.0,0.,12.0,0.,12.0,0.,12.0
1979-03-10 06:10:46.220 ,6,1,0.,12.0,0.,12.0,0.,12.0,0.,12.0
1979-03-10 06:10:58.220 ,6,1,0.,12.0,0.,12.0,0.,12.0,0.,12.0
1979-03-10 06:11:10.220 ,7,1,0.,12.0,1.,12.0,0.,12.0,0.,12.0
1979-03-10 06:11:22.220 ,7,1,0.,12.0,0.,12.0,0.,12.0,0.,12.0
1979-03-10 06:11:34.220 ,7,1,0.,12.0,0.,12.0,0.,12.0,0.,12.0
1979-03-10 06:11:46.220 ,7,1,0.,12.0,0.,12.0,0.,12.0,0.,12.0
1979-03-10 06:11:58.220 ,6,1,0.,12.0,0.,12.0,0.,12.0,0.,12.0
1979-03-10 06:12:10.220 ,6,1,0.,12.0,0.,12.0,0.,12.0,0.,12.0
1979-03-10 06:12:22.220 ,5,1,0.,12.0,0.,12.0,0.,12.0,0.,12.0
1979-03-10 06:12:34.220 ,5,1,0.,12.0,0.,12.0,0.,12.0,0.,12.0
1979-03-10 06:12:46.220 ,4,1,0.,12.0,0.,12.0,0.,12.0,0.,12.0
1979-03-10 06:12:58.220 ,4,1,0.,12.0,0.,12.0,0.,12.0,0.,12.0
1979-03-10 06:13:10.220 ,3,1,0.,12.0,0.,12.0,0.,12.0,0.,12.0
1979-03-10 06:13:22.220 ,3,1,0.,12.0,0.,12.0,0.,12.0,0.,12.0
1979-03-10 06:13:34.220 ,2,1,0.,12.0,0.,12.0,0.,12.0,0.,12.0
1979-03-10 06:13:46.220 ,2,1,0.,12.0,0.,12.0,0.,12.0,0.,12.0
1979-03-10 06:13:58.220 ,1,1,0.,12.0,0.,12.0,0.,12.0,0.,12.0
1979-03-10 06:14:10.220 ,1,1,0.,12.0,0.,12.0,0.,12.0,0.,12.0
1979-03-10 06:14:22.220 ,0,1,0.,12.0,0.,12.0,0.,12.0,0.,12.0
1979-03-10 06:14:34.220 ,0,1,0.,12.0,0.,12.0,0.,12.0,0.,12.0
1979-03-10 06:14:46.220 ,0,1,0.,12.0,0.,12.0,0.,12.0,0.,12.0
1979-03-10 06:14:58.220 ,0,1,0.,12.0,0.,12.0,0.,12.0,0.,12.0
1979-03-10 06:15:10.220 ,1,1,0.,12.0,0.,12.0,0.,12.0,0.,12.0
1979-03-10 06:15:22.220 ,1,1,0.,12.0,0.,12.0,0.,12.0,0.,12.0
1979-03-10 06:15:34.220 ,2,1,0.,12.0,0.,12.0,0.,12.0,0.,12.0
1979-03-10 06:15:46.220 ,2,1,0.,12.0,0.,12.0,0.,12.0,0.,12.0
1979-03-10 06:15:58.220 ,3,1,0.,12.0,0.,12.0,0.,12.0,0.,12.0
1979-03-10 06:16:10.220 ,3,1,0.,12.0,0.,12.0,0.,12.0,0.,12.0
1979-03-10 06:16:22.220 ,4,1,0.,12.0,0.,12.0,0.,12.0,0.,12.0
1979-03-10 06:16:34.220 ,4,1,0.,12.0,0.,12.0,0.,12.0,0.,12.0
1979-03-10 06:16:46.220 ,5,1,0.,12.0,0.,12.0,0.,12.0,0.,12.0
1979-03-10 06:16:58.220 ,5,1,0.,12.0,0.,12.0,0.,12.0,0.,12.0
1979-03-10 06:17:10.220 ,6,1,0.,12.0,0.,12.0,0.,12.0,0.,12.0
1979-03-10 06:17:22.220 ,6,1,0.,12.0,0.,12.0,0.,12.0,0.,12.0
1979-03-10 06:17:34.220 ,7,1,0.,12.0,0.,12.0,0.,12.0,0.,12.0
1979-03-10 06:17:46.220 ,7,1,0.,12.0,0.,12.0,0.,12.0,0.,12.0
1979-03-10 06:17:58.220 ,7,1,0.,12.0,0.,12.0,0.,12.0,0.,12.0
1979-03-10 06:18:10.220 ,7,1,0.,12.0,0.,12.0,0.,12.0,0.,12.0
1979-03-10 06:18:22.220 ,6,1,0.,12.0,0.,12.0,0.,12.0,0.,12.0
1979-03-10 06:18:34.220 ,6,1,0.,12.0,0.,12.0,0.,12.0,0.,12.0
1979-03-10 06:18:46.220 ,5,1,0.,12.0,0.,12.0,0.,12.0,0.,12.0
1979-03-10 06:18:58.220 ,5,1,0.,12.0,0.,12.0,0.,12.0,0.,12.0
1979-03-10 06:19:10.220 ,4,1,0.,12.0,0.,12.0,0.,12.0,0.,12.0
1979-03-10 06:19:22.220 ,4,1,0.,12.0,0.,12.0,0.,12.0,0.,12.0
1979-03-10 06:19:34.220 ,3,1,0.,12.0,0.,12.0,0.,12.0,0.,12.0
1979-03-10 06:19:46.220 ,3,1,0.,12.0,0.,12.0,0.,12.0,0.,12.0
1979-03-10 06:19:58.220 ,2,1,0.,12.0,0.,12.0,0.,12.0,0.,12.0
1979-03-10 06:20:10.220 ,2,1,0.,12.0,0.,12.0,0.,12.0,0.,12.0
1979-03-10 06:20:22.220 ,1,1,0.,12.0,0.,12.0,0.,12.0,0.,12.0
1979-03-10 06:20:34.220 ,1,1,0.,12.0,0.,12.0,0.,12.0,0.,12.0
1979-03-10 06:20:46.220 ,0,1,0.,12.0,0.,12.0,0.,12.0,0.,12.0
1979-03-10 06:20:58.220 ,0,1,0.,12.0,0.,12.0,0.,12.0,0.,12.0
1979-03-10 06:21:10.220 ,0,1,0.,12.0,0.,12.0,0.,12.0,0.,12.0
1979-03-10 06:21:22.220 ,0,1,0.,12.0,0.,12.0,0.,12.0,0.,12.0
1979-03-10 06:21:34.220 ,1,1,0.,12.0,0.,12.0,0.,12.0,0.,12.0
1979-03-10 06:21:46.220 ,1,1,0.,12.0,0.,12.0,0.,12.0,0.,12.0
1979-03-10 06:21:58.220 ,2,1,0.,12.0,0.,12.0,0.,12.0,0.,12.0
1979-03-10 06:22:10.220 ,2,1,0.,12.0,0.,12.0,0.,12.0,0.,12.0
1979-03-10 06:22:22.220 ,3,1,0.,12.0,0.,12.0,0.,12.0,0.,12.0
1979-03-10 06:22:34.220 ,3,1,0.,12.0,0.,12.0,0.,12.0,0.,12.0
1979-03-10 06:22:46.220 ,4,1,0.,12.0,0.,12.0,0.,12.0,0.,12.0
1979-03-10 06:22:58.220 ,4,1,0.,12.0,0.,12.0,0.,12.0,0.,12.0
1979-03-10 06:23:10.220 ,5,1,0.,12.0,0.,12.0,0.,12.0,0.,12.0
1979-03-10 06:23:22.220 ,5,1,0.,12.0,0.,12.0,0.,12.0,0.,12.0
1979-03-10 06:23:34.220 ,6,1,0.,12.0,0.,12.0,0.,12.0,0.,12.0
1979-03-10 06:23:46.220 ,6,1,0.,12.0,0.,12.0,0.,12.0,0.,12.0
1979-03-10 06:23:58.220 ,7,1,0.,12.0,0.,12.0,0.,12.0,0.,12.0
1979-03-10 06:24:10.220 ,7,1,0.,12.0,0.,12.0,0.,12.0,0.,12.0
1979-03-10 06:24:22.220 ,7,1,0.,12.0,0.,12.0,0.,12.0,0.,12.0
1979-03-10 06:24:34.220 ,7,1,0.,12.0,0.,12.0,0.,12.0,0.,12.0
1979-03-10 06:24:46.220 ,6,1,0.,12.0,0.,12.0,0.,12.0,0.,12.0
1979-03-10 06:24:58.220 ,6,1,0.,12.0,0.,12.0,0.,12.0,0.,12.0
1979-03-10 06:25:10.220 ,5,1,0.,12.0,0.,12.0,0.,12.0,0.,12.0
1979-03-10 06:25:22.220 ,5,1,0.,12.0,0.,12.0,0.,12.0,0.,12.0
1979-03-10 06:25:34.220 ,4,1,0.,12.0,0.,12.0,0.,12.0,0.,12.0
1979-03-10 06:25:46.220 ,4,1,0.,12.0,0.,12.0,0.,12.0,0.,12.0
1979-03-10 06:25:58.220 ,3,1,0.,12.0,0.,12.0,0.,12.0,0.,12.0
1979-03-10 06:26:10.220 ,3,1,0.,12.0,0.,12.0,0.,12.0,0.,12.0
1979-03-10 06:26:22.220 ,2,1,0.,12.0,0.,12.0,0.,12.0,0.,12.0
1979-03-10 06:26:34.220 ,2,1,0.,12.0,0.,12.0,0.,12.0,0.,12.0
1979-03-10 06:26:46.220 ,1,1,0.,12.0,0.,12.0,0.,12.0,0.,12.0
1979-03-10 06:26:58.220 ,1,1,0.,12.0,0.,12.0,0.,12.0,0.,12.0
1979-03-10 06:27:10.220 ,0,1,0.,12.0,0.,12.0,0.,12.0,0.,12.0
1979-03-10 06:27:22.220 ,0,1,0.,12.0,0.,12.0,0.,12.0,0.,12.0
1979-03-10 06:27:34.220 ,0,1,0.,12.0,0.,12.0,0.,12.0,0.,12.0
1979-03-10 06:27:46.220 ,0,1,0.,12.0,0.,12.0,0.,12.0,0.,12.0
1979-03-10 06:27:58.220 ,1,1,0.,12.0,0.,12.0,0.,12.0,0.,12.0
1979-03-10 06:28:10.220 ,1,1,0.,12.0,0.,12.0,0.,12.0,0.,12.0
1979-03-10 06:28:22.220 ,2,1,0.,12.0,0.,12.0,0.,12.0,0.,12.0
1979-03-10 06:28:34.220 ,2,1,0.,12.0,0.,12.0,0.,12.0,0.,12.0
1979-03-10 06:28:46.220 ,3,1,0.,12.0,0.,12.0,0.,12.0,0.,12.0
1979-03-10 06:28:58.220 ,3,1,0.,12.0,0.,12.0,0.,12.0,0.,12.0
1979-03-10 06:29:10.220 ,4,1,0.,12.0,0.,12.0,0.,12.0,0.,12.0
1979-03-10 06:29:22.220 ,4,1,0.,12.0,0.,12.0,0.,12.0,0.,12.0
1979-03-10 06:29:34.220 ,5,1,0.,12.0,0.,12.0,0.,12.0,0.,12.0
1979-03-10 06:29:46.220 ,5,1,0.,12.0,0.,12.0,0.,12.0,0.,12.0
1979-03-10 06:29:58.220 ,6,1,0.,12.0,0.,12.0,0.,12.0,0.,12.0
1979-03-10 06:30:10.220 ,6,1,0.,12.0,0.,12.0,0.,12.0,0.,12.0
1979-03-10 06:30:22.220 ,7,1,0.,12.0,0.,12.0,0.,12.0,0.,12.0
1979-03-10 06:30:34.220 ,7,1,0.,12.0,0.,12.0,0.,12.0,0.,12.0
1979-03-10 06:30:46.220 ,7,1,0.,12.0,0.,12.0,0.,12.0,0.,12.0
1979-03-10 06:30:58.220 ,7,1,0.,12.0,0.,12.0,0.,12.0,0.,12.0
1979-03-10 06:31:10.220 ,6,1,0.,12.0,0.,12.0,0.,12.0,0.,12.0
1979-03-10 06:31:22.220 ,6,1,0.,12.0,0.,12.0,0.,12.0,0.,12.0
1979-03-10 06:31:34.220 ,5,1,0.,12.0,0.,12.0,0.,12.0,0.,12.0
1979-03-10 06:31:46.220 ,5,1,0.,12.0,0.,12.0,0.,12.0,0.,12.0
1979-03-10 06:31:58.220 ,4,1,0.,12.0,0.,12.0,0.,12.0,0.,12.0
1979-03-10 06:32:10.220 ,4,1,0.,12.0,0.,12.0,0.,12.0,0.,12.0
1979-03-10 06:32:22.220 ,3,1,0.,12.0,0.,12.0,0.,12.0,0.,12.0
1979-03-10 06:32:34.220 ,3,1,0.,12.0,0.,12.0,0.,12.0,0.,12.0
1979-03-10 06:32:46.220 ,2,1,0.,12.0,0.,12.0,0.,12.0,0.,12.0
1979-03-10 06:32:58.220 ,2,1,0.,12.0,0.,12.0,0.,12.0,1.,12.0
1979-03-10 06:33:10.220 ,1,1,0.,12.0,0.,12.0,0.,12.0,0.,12.0
1979-03-10 06:33:22.220 ,1,1,0.,12.0,0.,12.0,0.,12.0,0.,12.0
1979-03-10 06:33:34.220 ,0,1,0.,12.0,0.,12.0,0.,12.0,0.,12.0
1979-03-10 06:33:46.220 ,0,1,0.,12.0,0.,12.0,0.,12.0,0.,12.0
1979-03-10 06:33:58.220 ,0,1,0.,12.0,0.,12.0,0.,12.0,0.,12.0
1979-03-10 06:34:10.220 ,0,1,0.,12.0,0.,12.0,0.,12.0,0.,12.0
1979-03-10 06:34:22.220 ,1,1,0.,12.0,0.,12.0,0.,12.0,0.,12.0
1979-03-10 06:34:34.220 ,1,1,0.,12.0,0.,12.0,0.,12.0,0.,12.0
1979-03-10 06:34:46.220 ,2,1,0.,12.0,0.,12.0,0.,12.0,0.,12.0
1979-03-10 06:34:58.220 ,2,1,0.,12.0,0.,12.0,0.,12.0,0.,12.0
1979-03-10 06:35:10.220 ,3,1,0.,12.0,0.,12.0,0.,12.0,0.,12.0
1979-03-10 06:35:22.220 ,3,1,0.,12.0,0.,12.0,0.,12.0,0.,12.0
1979-03-10 06:35:34.220 ,4,1,0.,12.0,0.,12.0,0.,12.0,0.,12.0
1979-03-10 06:35:46.220 ,4,1,0.,12.0,0.,12.0,0.,12.0,0.,12.0
1979-03-10 06:35:58.220 ,5,1,0.,12.0,0.,12.0,0.,12.0,0.,12.0
1979-03-10 06:36:10.220 ,5,1,0.,12.0,0.,12.0,0.,12.0,0.,12.0
1979-03-10 06:36:22.220 ,6,1,0.,12.0,0.,12.0,0.,12.0,0.,12.0
1979-03-10 06:36:34.220 ,6,1,0.,12.0,0.,12.0,0.,12.0,0.,12.0
1979-03-10 06:36:46.220 ,7,1,0.,12.0,0.,12.0,0.,12.0,0.,12.0
1979-03-10 06:36:58.220 ,7,1,0.,12.0,0.,12.0,0.,12.0,0.,12.0
1979-03-10 06:37:10.220 ,7,1,0.,12.0,0.,12.0,0.,12.0,0.,12.0
1979-03-10 06:37:22.220 ,7,1,0.,12.0,0.,12.0,0.,12.0,0.,12.0
1979-03-10 06:37:34.220 ,6,1,0.,12.0,0.,12.0,0.,12.0,0.,12.0
1979-03-10 06:37:46.220 ,6,1,0.,12.0,0.,12.0,0.,12.0,0.,12.0
1979-03-10 06:37:58.220 ,5,1,0.,12.0,0.,12.0,0.,12.0,0.,12.0
1979-03-10 06:38:10.220 ,5,1,0.,12.0,0.,12.0,0.,12.0,0.,12.0
1979-03-10 06:38:22.220 ,4,1,0.,12.0,0.,12.0,0.,12.0,0.,12.0
1979-03-10 06:38:34.220 ,4,1,0.,12.0,0.,12.0,0.,12.0,0.,12.0
1979-03-10 06:38:46.220 ,3,1,0.,12.0,0.,12.0,0.,12.0,0.,12.0
1979-03-10 06:38:58.220 ,3,1,0.,12.0,0.,12.0,0.,12.0,0.,12.0
1979-03-10 06:39:10.220 ,0,1,0.,12.0,0.,12.0,0.,12.0,0.,12.0
1979-03-10 06:39:22.220 ,0,1,0.,12.0,0.,12.0,0.,12.0,0.,12.0
1979-03-10 06:39:34.220 ,3,1,0.,12.0,0.,12.0,0.,12.0,0.,12.0
1979-03-10 06:39:46.220 ,3,1,0.,12.0,0.,12.0,0.,12.0,0.,12.0
1979-03-10 06:39:58.220 ,7,1,0.,12.0,0.,12.0,0.,12.0,0.,12.0
1979-03-10 06:40:10.220 ,7,1,0.,12.0,0.,12.0,0.,12.0,0.,12.0
1979-03-10 06:40:22.220 ,4,1,0.,12.0,0.,12.0,0.,12.0,0.,12.0
1979-03-10 06:40:34.220 ,4,1,0.,12.0,0.,12.0,0.,12.0,0.,12.0
1979-03-10 06:40:46.220 ,0,1,0.,12.0,0.,12.0,0.,12.0,0.,12.0
1979-03-10 06:40:58.220 ,0,1,0.,12.0,0.,12.0,0.,12.0,0.,12.0
1979-03-10 06:41:10.220 ,3,1,0.,12.0,0.,12.0,0.,12.0,0.,12.0
1979-03-10 06:41:22.220 ,3,1,0.,12.0,0.,12.0,0.,12.0,0.,12.0
1979-03-10 06:41:34.220 ,7,1,0.,12.0,0.,12.0,0.,12.0,0.,12.0
1979-03-10 06:41:46.220 ,7,1,0.,12.0,0.,12.0,0.,12.0,0.,12.0
1979-03-10 06:41:58.220 ,4,1,0.,12.0,0.,12.0,0.,12.0,0.,12.0
1979-03-10 06:42:10.220 ,4,1,0.,12.0,0.,12.0,0.,12.0,0.,12.0
1979-03-10 06:42:22.220 ,0,1,0.,12.0,0.,12.0,0.,12.0,0.,12.0
1979-03-10 06:42:34.220 ,0,1,0.,12.0,0.,12.0,0.,12.0,0.,12.0
1979-03-10 06:42:46.220 ,3,1,0.,12.0,0.,12.0,0.,12.0,0.,12.0
1979-03-10 06:42:58.220 ,3,1,0.,12.0,0.,12.0,0.,12.0,0.,12.0
1979-03-10 06:43:10.220 ,7,1,0.,12.0,0.,12.0,0.,12.0,1.,12.0
1979-03-10 06:43:22.220 ,7,1,0.,12.0,0.,12.0,0.,12.0,0.,12.0
1979-03-10 06:43:34.220 ,4,1,0.,12.0,0.,12.0,0.,12.0,0.,12.0
1979-03-10 06:43:46.220 ,4,1,0.,12.0,0.,12.0,0.,12.0,0.,12.0
1979-03-10 06:43:58.220 ,0,1,0.,12.0,0.,12.0,0.,12.0,0.,12.0
1979-03-10 06:44:10.220 ,0,1,0.,12.0,0.,12.0,0.,12.0,0.,12.0
1979-03-10 06:44:22.220 ,3,1,0.,12.0,0.,12.0,0.,12.0,0.,12.0
1979-03-10 06:44:34.220 ,3,1,0.,12.0,0.,12.0,0.,12.0,0.,12.0
1979-03-10 06:44:46.220 ,7,1,0.,12.0,0.,12.0,0.,12.0,0.,12.0
1979-03-10 06:44:58.220 ,7,1,0.,12.0,0.,12.0,0.,12.0,0.,12.0
1979-03-10 06:45:10.220 ,4,1,0.,12.0,0.,12.0,0.,12.0,0.,12.0
1979-03-10 06:45:22.220 ,4,1,0.,12.0,0.,12.0,0.,12.0,0.,12.0
1979-03-10 06:45:34.220 ,0,1,0.,12.0,0.,12.0,0.,12.0,0.,12.0
1979-03-10 06:45:46.220 ,0,1,0.,12.0,0.,12.0,0.,12.0,0.,12.0
1979-03-10 06:45:58.220 ,3,1,0.,12.0,0.,12.0,0.,12.0,0.,12.0
1979-03-10 06:46:10.220 ,3,1,0.,12.0,0.,12.0,0.,12.0,0.,12.0
1979-03-10 06:46:22.220 ,7,1,0.,12.0,0.,12.0,0.,12.0,0.,12.0
1979-03-10 06:46:34.220 ,7,1,0.,12.0,0.,12.0,0.,12.0,0.,12.0
1979-03-10 06:46:46.220 ,4,1,0.,12.0,0.,12.0,0.,12.0,0.,12.0
1979-03-10 06:46:58.220 ,4,1,0.,12.0,0.,12.0,0.,12.0,0.,12.0
1979-03-10 06:47:10.220 ,0,1,0.,12.0,0.,12.0,0.,12.0,0.,12.0
1979-03-10 06:47:22.220 ,0,1,0.,12.0,0.,12.0,0.,12.0,0.,12.0
1979-03-10 06:47:34.220 ,3,1,0.,12.0,0.,12.0,0.,12.0,0.,12.0
1979-03-10 06:47:46.220 ,3,1,0.,12.0,0.,12.0,0.,12.0,0.,12.0
1979-03-10 06:47:58.220 ,7,1,0.,12.0,0.,12.0,0.,12.0,0.,12.0
1979-03-10 06:48:10.220 ,7,1,0.,12.0,0.,12.0,0.,12.0,0.,12.0
1979-03-10 06:48:22.220 ,4,1,0.,12.0,0.,12.0,0.,12.0,0.,12.0
1979-03-10 06:48:34.220 ,4,1,0.,12.0,0.,12.0,0.,12.0,0.,12.0
1979-03-10 06:48:46.220 ,0,1,0.,12.0,0.,12.0,0.,12.0,0.,12.0
1979-03-10 06:48:58.220 ,0,1,0.,12.0,0.,12.0,0.,12.0,0.,12.0
1979-03-10 06:49:10.220 ,3,1,0.,12.0,0.,12.0,0.,12.0,0.,12.0
1979-03-10 06:49:22.220 ,3,1,0.,12.0,0.,12.0,0.,12.0,0.,12.0
1979-03-10 06:49:34.220 ,7,1,0.,12.0,0.,12.0,0.,12.0,0.,12.0
1979-03-10 06:49:46.220 ,7,1,0.,12.0,0.,12.0,0.,12.0,0.,12.0
1979-03-10 06:49:58.220 ,4,1,0.,12.0,0.,12.0,0.,12.0,0.,12.0
1979-03-10 06:50:10.220 ,4,1,0.,12.0,0.,12.0,0.,12.0,0.,12.0
1979-03-10 06:50:22.220 ,0,1,0.,12.0,0.,12.0,0.,12.0,0.,12.0
1979-03-10 06:50:34.220 ,0,1,0.,12.0,0.,12.0,0.,12.0,0.,12.0
1979-03-10 06:50:46.220 ,3,1,0.,12.0,0.,12.0,0.,12.0,0.,12.0
1979-03-10 06:50:58.220 ,3,1,0.,12.0,0.,12.0,0.,12.0,0.,12.0
1979-03-10 06:51:10.220 ,7,1,0.,12.0,0.,12.0,0.,12.0,0.,12.0
1979-03-10 06:51:22.220 ,7,1,0.,12.0,0.,12.0,0.,12.0,0.,12.0
1979-03-10 06:51:34.220 ,4,1,0.,12.0,0.,12.0,0.,12.0,0.,12.0
1979-03-10 06:51:46.220 ,4,1,0.,12.0,0.,12.0,0.,12.0,0.,12.0
1979-03-10 06:51:58.220 ,0,1,0.,12.0,0.,12.0,0.,12.0,0.,12.0
1979-03-10 06:52:10.220 ,0,1,0.,12.0,0.,12.0,0.,12.0,0.,12.0
1979-03-10 06:52:22.220 ,3,1,0.,12.0,0.,12.0,0.,12.0,0.,12.0
1979-03-10 06:52:34.220 ,3,1,0.,12.0,0.,12.0,0.,12.0,0.,12.0
1979-03-10 06:52:46.220 ,7,1,0.,12.0,0.,12.0,0.,12.0,0.,12.0
1979-03-10 06:52:58.220 ,7,1,0.,12.0,0.,12.0,0.,12.0,0.,12.0
1979-03-10 06:53:10.220 ,4,1,0.,12.0,0.,12.0,0.,12.0,0.,12.0
1979-03-10 06:53:22.220 ,4,1,0.,12.0,0.,12.0,0.,12.0,0.,12.0
1979-03-10 06:53:34.220 ,0,1,0.,12.0,0.,12.0,0.,12.0,0.,12.0
1979-03-10 06:53:46.220 ,0,1,0.,12.0,0.,12.0,0.,12.0,0.,12.0
1979-03-10 06:53:58.220 ,3,1,0.,12.0,0.,12.0,0.,12.0,0.,12.0
1979-03-10 06:54:10.220 ,3,1,0.,12.0,0.,12.0,0.,12.0,0.,12.0
1979-03-10 06:54:22.220 ,7,1,0.,12.0,0.,12.0,0.,12.0,0.,12.0
1979-03-10 06:54:34.220 ,7,1,0.,12.0,0.,12.0,0.,12.0,0.,12.0
1979-03-10 06:54:46.220 ,4,1,0.,12.0,0.,12.0,0.,12.0,0.,12.0
1979-03-10 06:54:58.220 ,4,1,0.,12.0,0.,12.0,0.,12.0,0.,12.0
1979-03-10 06:55:10.220 ,0,1,0.,12.0,0.,12.0,0.,12.0,0.,12.0
1979-03-10 06:55:22.220 ,0,1,0.,12.0,0.,12.0,0.,12.0,0.,12.0
1979-03-10 06:55:34.220 ,3,1,0.,12.0,0.,12.0,0.,12.0,0.,12.0
1979-03-10 06:55:46.220 ,3,1,0.,12.0,0.,12.0,0.,12.0,0.,12.0
1979-03-10 06:55:58.220 ,7,1,0.,12.0,0.,12.0,0.,12.0,0.,12.0
1979-03-10 06:56:10.220 ,7,1,0.,12.0,0.,12.0,0.,12.0,0.,12.0
1979-03-10 06:56:22.220 ,4,1,0.,12.0,0.,12.0,0.,12.0,0.,12.0
1979-03-10 06:56:34.220 ,4,1,0.,12.0,0.,12.0,0.,12.0,0.,12.0
1979-03-10 06:56:46.220 ,0,1,0.,12.0,0.,12.0,0.,12.0,0.,12.0
1979-03-10 06:56:58.220 ,0,1,0.,12.0,0.,12.0,0.,12.0,0.,12.0
1979-03-10 06:57:10.220 ,3,1,0.,12.0,0.,12.0,0.,12.0,0.,12.0
1979-03-10 06:57:22.220 ,3,1,0.,12.0,0.,12.0,0.,12.0,0.,12.0
1979-03-10 06:57:34.220 ,7,1,0.,12.0,0.,12.0,0.,12.0,0.,12.0
1979-03-10 06:57:46.220 ,7,1,0.,12.0,0.,12.0,0.,12.0,0.,12.0
1979-03-10 06:57:58.220 ,4,1,0.,12.0,0.,12.0,0.,12.0,0.,12.0
1979-03-10 06:58:10.220 ,4,1,0.,12.0,0.,12.0,0.,12.0,0.,12.0
1979-03-10 06:58:22.220 ,0,1,0.,12.0,0.,12.0,0.,12.0,0.,12.0
1979-03-10 06:58:34.220 ,0,1,0.,12.0,0.,12.0,0.,12.0,0.,12.0
1979-03-10 06:58:46.220 ,3,1,0.,12.0,0.,12.0,0.,12.0,0.,12.0
1979-03-10 06:58:58.220 ,3,1,0.,12.0,0.,12.0,0.,12.0,0.,12.0
1979-03-10 06:59:10.220 ,7,1,0.,12.0,0.,12.0,0.,12.0,0.,12.0
1979-03-10 06:59:22.220 ,7,1,0.,12.0,0.,12.0,0.,12.0,0.,12.0
1979-03-10 06:59:34.220 ,4,1,0.,12.0,0.,12.0,0.,12.0,0.,12.0
1979-03-10 06:59:46.220 ,4,1,0.,12.0,0.,12.0,0.,12.0,0.,12.0
1979-03-10 06:59:58.220 ,0,1,0.,12.0,0.,12.0,0.,12.0,0.,12.0
1979-03-10 07:00:10.220 ,0,1,0.,12.0,0.,12.0,0.,12.0,0.,12.0
1979-03-10 07:00:22.220 ,3,1,0.,12.0,0.,12.0,0.,12.0,0.,12.0
1979-03-10 07:00:34.220 ,3,1,0.,12.0,0.,12.0,0.,12.0,0.,12.0
1979-03-10 07:00:46.220 ,7,1,0.,12.0,0.,12.0,0.,12.0,0.,12.0
1979-03-10 07:00:58.220 ,7,1,0.,12.0,0.,12.0,0.,12.0,0.,12.0
1979-03-10 07:01:10.220 ,4,1,0.,12.0,0.,12.0,0.,12.0,0.,12.0
1979-03-10 07:01:22.220 ,4,1,0.,12.0,0.,12.0,0.,12.0,0.,12.0
1979-03-10 07:01:34.220 ,0,1,0.,12.0,0.,12.0,0.,12.0,0.,12.0
1979-03-10 07:01:46.220 ,0,1,0.,12.0,0.,12.0,0.,12.0,0.,12.0
1979-03-10 07:01:58.220 ,3,1,0.,12.0,0.,12.0,0.,12.0,0.,12.0
1979-03-10 07:02:10.220 ,3,1,0.,12.0,0.,12.0,0.,12.0,0.,12.0
1979-03-10 07:02:22.220 ,7,1,0.,12.0,0.,12.0,0.,12.0,0.,12.0
1979-03-10 07:02:34.220 ,7,1,0.,12.0,0.,12.0,0.,12.0,0.,12.0
1979-03-10 07:02:46.220 ,4,1,0.,12.0,0.,12.0,0.,12.0,0.,12.0
1979-03-10 07:02:58.220 ,4,1,0.,12.0,0.,12.0,0.,12.0,0.,12.0
1979-03-10 07:03:10.220 ,0,1,0.,12.0,0.,12.0,0.,12.0,0.,12.0
1979-03-10 07:03:22.220 ,0,1,0.,12.0,0.,12.0,0.,12.0,0.,12.0
1979-03-10 07:03:34.220 ,3,1,0.,12.0,0.,12.0,0.,12.0,0.,12.0
1979-03-10 07:03:46.220 ,3,1,0.,12.0,0.,12.0,0.,12.0,0.,12.0
1979-03-10 07:03:58.220 ,7,1,0.,12.0,0.,12.0,0.,12.0,0.,12.0
1979-03-10 07:04:10.220 ,7,1,0.,12.0,0.,12.0,0.,12.0,0.,12.0
1979-03-10 07:04:22.220 ,4,1,0.,12.0,0.,12.0,0.,12.0,0.,12.0
1979-03-10 07:04:34.220 ,4,1,0.,12.0,0.,12.0,0.,12.0,0.,12.0
1979-03-10 07:04:46.220 ,0,1,0.,12.0,0.,12.0,0.,12.0,0.,12.0
1979-03-10 07:04:58.220 ,0,1,0.,12.0,0.,12.0,0.,12.0,0.,12.0
1979-03-10 07:05:10.220 ,3,1,0.,12.0,0.,12.0,0.,12.0,0.,12.0
1979-03-10 07:05:22.220 ,3,1,0.,12.0,0.,12.0,0.,12.0,0.,12.0
1979-03-10 07:05:34.220 ,7,1,0.,12.0,0.,12.0,0.,12.0,0.,12.0
1979-03-10 07:05:46.220 ,7,1,0.,12.0,0.,12.0,0.,12.0,0.,12.0
1979-03-10 07:05:58.220 ,4,1,0.,12.0,0.,12.0,0.,12.0,0.,12.0
1979-03-10 07:06:10.220 ,4,1,0.,12.0,0.,12.0,0.,12.0,0.,12.0
1979-03-10 07:06:22.220 ,0,1,0.,12.0,0.,12.0,0.,12.0,0.,12.0
1979-03-10 07:06:34.220 ,0,1,0.,12.0,0.,12.0,0.,12.0,0.,12.0
1979-03-10 07:06:46.220 ,3,1,0.,12.0,0.,12.0,0.,12.0,0.,12.0
1979-03-10 07:06:58.220 ,3,1,0.,12.0,0.,12.0,0.,12.0,0.,12.0
1979-03-10 07:07:10.220 ,7,1,0.,12.0,1.,12.0,0.,12.0,0.,12.0
1979-03-10 07:07:22.220 ,7,1,0.,12.0,0.,12.0,0.,12.0,0.,12.0
1979-03-10 07:07:34.220 ,4,1,0.,12.0,0.,12.0,0.,12.0,0.,12.0
1979-03-10 07:07:46.220 ,4,1,0.,12.0,0.,12.0,0.,12.0,0.,12.0
1979-03-10 07:07:58.220 ,0,1,0.,12.0,0.,12.0,0.,12.0,0.,12.0
1979-03-10 07:08:10.220 ,0,1,0.,12.0,0.,12.0,0.,12.0,0.,12.0
1979-03-10 07:08:22.220 ,3,1,0.,12.0,0.,12.0,0.,12.0,0.,12.0
1979-03-10 07:08:34.220 ,3,1,0.,12.0,0.,12.0,0.,12.0,0.,12.0
1979-03-10 07:08:46.220 ,7,1,0.,12.0,0.,12.0,0.,12.0,0.,12.0
1979-03-10 07:08:58.220 ,7,1,0.,12.0,0.,12.0,0.,12.0,0.,12.0
1979-03-10 07:09:10.220 ,4,1,0.,12.0,0.,12.0,0.,12.0,0.,12.0
1979-03-10 07:09:22.220 ,4,1,0.,12.0,1.,12.0,0.,12.0,0.,12.0
1979-03-10 07:09:34.220 ,0,1,0.,12.0,0.,12.0,0.,12.0,0.,12.0
1979-03-10 07:09:46.220 ,0,1,0.,12.0,0.,12.0,0.,12.0,0.,12.0
1979-03-10 07:09:58.220 ,3,1,0.,12.0,0.,12.0,0.,12.0,0.,12.0
1979-03-10 07:10:10.220 ,3,1,0.,12.0,0.,12.0,0.,12.0,0.,12.0
1979-03-10 07:10:22.220 ,7,1,0.,12.0,0.,12.0,0.,12.0,0.,12.0
1979-03-10 07:10:34.220 ,7,1,0.,12.0,0.,12.0,0.,12.0,0.,12.0
1979-03-10 07:10:46.220 ,4,1,0.,12.0,0.,12.0,0.,12.0,0.,12.0
1979-03-10 07:10:58.220 ,4,1,0.,12.0,0.,12.0,0.,12.0,0.,12.0
1979-03-10 07:11:10.220 ,0,1,0.,12.0,0.,12.0,0.,12.0,0.,12.0
1979-03-10 07:11:22.220 ,0,1,0.,12.0,0.,12.0,0.,12.0,0.,12.0
1979-03-10 07:11:34.220 ,3,1,0.,12.0,0.,12.0,0.,12.0,0.,12.0
1979-03-10 07:11:46.220 ,3,1,0.,12.0,0.,12.0,0.,12.0,0.,12.0
1979-03-10 07:11:58.220 ,7,1,0.,12.0,0.,12.0,0.,12.0,0.,12.0
1979-03-10 07:12:10.220 ,7,1,0.,12.0,0.,12.0,0.,12.0,0.,12.0
1979-03-10 07:12:22.220 ,4,1,0.,12.0,0.,12.0,0.,12.0,0.,12.0
1979-03-10 07:12:34.220 ,4,1,0.,12.0,0.,12.0,0.,12.0,0.,12.0
1979-03-10 07:12:46.220 ,0,1,0.,12.0,0.,12.0,0.,12.0,0.,12.0
1979-03-10 07:12:58.220 ,0,1,0.,12.0,0.,12.0,0.,12.0,0.,12.0
1979-03-10 07:13:10.220 ,3,1,0.,12.0,0.,12.0,0.,12.0,0.,12.0
1979-03-10 07:13:22.220 ,3,1,0.,12.0,0.,12.0,0.,12.0,0.,12.0
1979-03-10 07:13:34.220 ,7,1,0.,12.0,0.,12.0,0.,12.0,0.,12.0
1979-03-10 07:13:46.220 ,7,1,0.,12.0,0.,12.0,0.,12.0,0.,12.0
1979-03-10 07:13:58.220 ,4,1,0.,12.0,0.,12.0,0.,12.0,0.,12.0
1979-03-10 07:14:10.220 ,4,1,0.,12.0,0.,12.0,0.,12.0,0.,12.0
1979-03-10 07:14:22.220 ,0,1,0.,12.0,0.,12.0,0.,12.0,0.,12.0
1979-03-10 07:14:34.220 ,0,1,0.,12.0,0.,12.0,0.,12.0,0.,12.0
1979-03-10 07:14:46.220 ,3,1,0.,12.0,0.,12.0,0.,12.0,0.,12.0
1979-03-10 07:14:58.220 ,3,1,0.,12.0,0.,12.0,0.,12.0,0.,12.0
1979-03-10 07:15:10.220 ,7,1,0.,12.0,0.,12.0,0.,12.0,0.,12.0
1979-03-10 07:15:22.220 ,7,1,0.,12.0,0.,12.0,0.,12.0,0.,12.0
1979-03-10 07:15:34.220 ,4,1,0.,12.0,0.,12.0,0.,12.0,0.,12.0
1979-03-10 07:15:46.220 ,4,1,0.,12.0,0.,12.0,0.,12.0,0.,12.0
1979-03-10 07:15:58.220 ,0,1,0.,12.0,0.,12.0,0.,12.0,0.,12.0
1979-03-10 07:16:10.220 ,0,1,0.,12.0,0.,12.0,0.,12.0,0.,12.0
1979-03-10 07:16:22.220 ,3,1,0.,12.0,0.,12.0,0.,12.0,0.,12.0
1979-03-10 07:16:34.220 ,3,1,0.,12.0,0.,12.0,0.,12.0,0.,12.0
1979-03-10 07:16:46.220 ,7,1,0.,12.0,0.,12.0,0.,12.0,0.,12.0
1979-03-10 07:16:58.220 ,7,1,0.,12.0,0.,12.0,0.,12.0,0.,12.0
1979-03-10 07:17:10.220 ,4,1,0.,12.0,0.,12.0,0.,12.0,0.,12.0
1979-03-10 07:17:22.220 ,4,1,0.,12.0,0.,12.0,0.,12.0,0.,12.0